Location: Keppel Henge
(44.7900°N, 80.9447°W)
Time: 21:55:28
(UTC-05:00)

Vanguard 1 Rocket - Pass Details

Date: 23 October 2017
Orbit: 655 x 4222 km, 34.3° (Epoch: 18 November)

Event Time Altitude Azimuth Distance (km) Brightness Sun altitude
Rises 08:07:37 0° 239° (WSW) 5,236 10.9 2.1°
Reaches altitude 10° 08:12:14 10° 230° (SW) 3,647 10.2 2.9°
Maximum altitude 08:19:07 28° 175° (S) 1,804 9.3 4.1°
Drops below altitude 10° 08:23:41 10° 116° (ESE) 2,358 12.3 4.8°
Sets 08:26:01 0° 103° (ESE) 3,117 12.6 5.2°
